| time (UTC) | temp C | wind direction | speed KPH | gust KPH | rain 1hr cm | rain 24hr cm | rain mn cm | humidity % | barometer mb |
| 20260510164402 | 34 | 23 | 4.8 | 8.0 | 0.00 | 0.00 | 0.00 | 40 | 1009.8 |
| 20260510162203 | 33 | 23 | 3.2 | 6.4 | 0.00 | 0.00 | 0.00 | 44 | 1009.8 |
| 20260510160003 | 31 | 315 | 6.4 | 8.0 | 0.00 | 0.00 | 0.00 | 44 | 1010.5 |
| 20260510154903 | 31 | 270 | 3.2 | 9.7 | 0.00 | 0.00 | 0.00 | 45 | 1010.5 |
| 20260510153803 | 28 | 225 | 8.0 | 8.0 | 0.00 | 0.00 | 0.00 | 48 | 1010.2 |
| 20260510152703 | 30 | 293 | 4.8 | 6.4 | 0.00 | 0.00 | 0.00 | 45 | 1010.2 |
| 20260510151603 | 28 | 203 | 3.2 | 9.7 | 0.00 | 0.00 | 0.00 | 48 | 1010.2 |
| 20260510145502 | 27 | 180 | 6.4 | 12.9 | 0.00 | 0.00 | 0.00 | 49 | 1010.2 |
| 20260510144402 | 30 | 113 | 3.2 | 6.4 | 0.00 | 0.00 | 0.00 | 48 | 1010.2 |
| 20260510142203 | 28 | 158 | 3.2 | 6.4 | 0.00 | 0.00 | 0.00 | 50 | 1009.5 |
| 20260510141202 | 27 | 293 | 3.2 | 4.8 | 0.00 | 0.00 | 0.00 | 54 | 1010.2 |
| 20260510135003 | 26 | 68 | 4.8 | 4.8 | 0.00 | 0.00 | 0.00 | 60 | 1010.5 |
| 20260510132902 | 26 | 180 | 0.0 | 0.0 | 0.00 | 0.00 | 0.00 | 63 | 1010.5 |
| 20260510131802 | 24 | 203 | 0.0 | 0.0 | 0.00 | 0.00 | 0.00 | 65 | 1010.2 |
| 20260510130702 | 25 | 0 | 0.0 | 0.0 | 0.00 | 0.00 | 0.00 | 65 | 1010.5 |
| 20260510125603 | 24 | 23 | 0.0 | 0.0 | 0.00 | 0.00 | 0.00 | 66 | 1010.2 |
| 20260510124603 | 23 | 225 | 0.0 | 0.0 | 0.00 | 0.00 | 0.00 | 68 | 1010.5 |
| 20260510123502 | 22 | 135 | 0.0 | 0.0 | 0.00 | 0.00 | 0.00 | 70 | 1010.2 |
| 20260510122403 | 22 | 45 | 0.0 | 0.0 | 0.00 | 0.00 | 0.00 | 73 | 1010.5 |
| 20260510121303 | 20 | 203 | 0.0 | 0.0 | 0.00 | 0.00 | 0.00 | 78 | 1010.2 |
| 20260510120203 | 19 | 23 | 0.0 | 0.0 | 0.00 | 0.00 | 0.00 | 86 | 1010.2 |
| 20260510114102 | 17 | 225 | 0.0 | 1.6 | 0.00 | 0.00 | 0.00 | 98 | 1009.8 |
| 20260510111902 | 13 | 180 | 0.0 | 0.0 | 0.00 | 0.00 | 0.00 | 98 | 1009.5 |
| 20260510105802 | 11 | 270 | 0.0 | 0.0 | 0.00 | 0.00 | 0.00 | 98 | 1009.1 |
| 20260510103603 | 10 | 23 | 1.6 | 1.6 | 0.00 | 0.00 | 0.00 | 98 | 1009.1 |
| 20260510102502 | 10 | 180 | 0.0 | 0.0 | 0.00 | 0.00 | 0.00 | 98 | 1009.1 |
| 20260510101403 | 10 | 180 | 0.0 | 0.0 | 0.00 | 0.00 | 0.00 | 98 | 1008.1 |
| 20260510100203 | 10 | 203 | 0.0 | 1.6 | 0.00 | 0.00 | 0.00 | 98 | 1008.1 |
| 20260510095003 | 9 | 68 | 0.0 | 0.0 | 0.00 | 0.00 | 0.00 | 98 | 1008.5 |
| 20260510093603 | 10 | 45 | 0.0 | 0.0 | 0.00 | 0.00 | 0.00 | 98 | 1008.5 |
| 20260510092102 | 10 | 180 | 0.0 | 0.0 | 0.00 | 0.00 | 0.00 | 98 | 1008.5 |
| 20260510090502 | 10 | 23 | 0.0 | 1.6 | 0.00 | 0.00 | 0.00 | 98 | 1008.5 |
| 20260510085403 | 11 | 203 | 0.0 | 0.0 | 0.00 | 0.00 | 0.00 | 98 | 1008.5 |
| 20260510084303 | 10 | 270 | 1.6 | 4.8 | 0.00 | 0.00 | 0.00 | 98 | 1008.1 |
| 20260510083303 | 10 | 225 | 1.6 | 3.2 | 0.00 | 0.00 | 0.00 | 98 | 1008.5 |
| 20260510082203 | 9 | 203 | 0.0 | 3.2 | 0.00 | 0.00 | 0.00 | 98 | 1007.8 |
| 20260510081102 | 9 | 45 | 0.0 | 0.0 | 0.00 | 0.00 | 0.00 | 98 | 1008.1 |
| 20260510075803 | 9 | 180 | 0.0 | 0.0 | 0.00 | 0.00 | 0.00 | 98 | 1007.8 |
| 20260510074703 | 9 | 203 | 0.0 | 0.0 | 0.00 | 0.00 | 0.00 | 98 | 1007.5 |
| 20260510073603 | 9 | 270 | 0.0 | 0.0 | 0.00 | 0.00 | 0.00 | 98 | 1007.5 |
| 20260510072403 | 10 | 180 | 0.0 | 0.0 | 0.00 | 0.00 | 0.00 | 98 | 1007.5 |
| 20260510071002 | 10 | 315 | 0.0 | 0.0 | 0.00 | 0.00 | 0.00 | 98 | 1007.1 |
| 20260510065803 | 10 | 270 | 0.0 | 0.0 | 0.00 | 0.00 | 0.00 | 98 | 1007.5 |
| 20260510064802 | 10 | 203 | 0.0 | 0.0 | 0.00 | 0.00 | 0.00 | 98 | 1007.1 |
| 20260510063703 | 10 | 270 | 0.0 | 0.0 | 0.00 | 0.00 | 0.00 | 98 | 1006.8 |
| 20260510061502 | 10 | 203 | 0.0 | 0.0 | 0.00 | 0.00 | 0.00 | 98 | 1007.8 |
| 20260510060302 | 11 | 203 | 0.0 | 0.0 | 0.00 | 0.00 | 0.00 | 98 | 1007.1 |
| 20260510055102 | 11 | 338 | 0.0 | 0.0 | 0.00 | 0.00 | 0.00 | 98 | 1007.5 |
| 20260510052903 | 11 | 0 | 0.0 | 0.0 | 0.00 | 0.00 | 0.00 | 98 | 1007.5 |
| 20260510051703 | 11 | 0 | 0.0 | 0.0 | 0.00 | 0.00 | 0.00 | 98 | 1007.1 |
| 20260510050403 | 11 | 0 | 0.0 | 0.0 | 0.00 | 0.00 | 0.00 | 98 | 1007.5 |
| 20260510044203 | 11 | 315 | 0.0 | 0.0 | 0.00 | 0.00 | 0.00 | 98 | 1007.5 |
| 20260510042903 | 12 | 315 | 0.0 | 0.0 | 0.00 | 0.00 | 0.00 | 96 | 1007.8 |
| 20260510041203 | 12 | 270 | 0.0 | 0.0 | 0.00 | 0.00 | 0.00 | 96 | 1007.8 |
| 20260510040104 | 12 | 293 | 0.0 | 0.0 | 0.00 | 0.00 | 0.00 | 96 | 1007.5 |
| 20260510035403 | 12 | 270 | 0.0 | 0.0 | 0.00 | 0.00 | 0.00 | 95 | 1007.8 |
| 20260510034203 | 12 | 315 | 0.0 | 0.0 | 0.00 | 0.00 | 0.00 | 95 | 1007.5 |
| 20260510033202 | 12 | 23 | 0.0 | 0.0 | 0.00 | 0.00 | 0.00 | 95 | 1007.1 |
| 20260510031902 | 12 | 315 | 0.0 | 0.0 | 0.00 | 0.00 | 0.00 | 93 | 1007.5 |
| 20260510030804 | 12 | 315 | 0.0 | 0.0 | 0.00 | 0.00 | 0.00 | 93 | 1006.8 |
| 20260510025702 | 12 | 315 | 0.0 | 0.0 | 0.00 | 0.00 | 0.00 | 91 | 1007.1 |
| 20260510024504 | 13 | 203 | 0.0 | 0.0 | 0.00 | 0.00 | 0.00 | 91 | 1007.8 |
| 20260510023403 | 13 | 203 | 0.0 | 0.0 | 0.00 | 0.00 | 0.00 | 91 | 1007.5 |
| 20260510022306 | 13 | 315 | 0.0 | 0.0 | 0.00 | 0.00 | 0.00 | 91 | 1007.1 |
| 20260510021303 | 14 | 225 | 0.0 | 0.0 | 0.00 | 0.00 | 0.00 | 90 | 1006.8 |
| 20260510020203 | 14 | 0 | 0.0 | 0.0 | 0.00 | 0.00 | 0.00 | 88 | 1007.5 |
| 20260510013903 | 15 | 225 | 0.0 | 0.0 | 0.00 | 0.00 | 0.00 | 88 | 1007.8 |
| 20260510012803 | 15 | 45 | 0.0 | 0.0 | 0.00 | 0.00 | 0.00 | 86 | 1007.8 |
| 20260510011703 | 16 | 180 | 0.0 | 3.2 | 0.00 | 0.00 | 0.00 | 86 | 1007.5 |
| 20260510010604 | 16 | 225 | 0.0 | 3.2 | 0.00 | 0.00 | 0.00 | 85 | 1007.5 |
| 20260510005603 | 16 | 225 | 6.4 | 6.4 | 0.00 | 0.00 | 0.00 | 85 | 1007.1 |
| 20260510003502 | 17 | 23 | 1.6 | 3.2 | 0.00 | 0.00 | 0.00 | 81 | 1006.4 |
| 20260510001303 | 18 | 113 | 0.0 | 0.0 | 0.00 | 0.00 | 0.00 | 76 | 1006.8 |
| 20260510000204 | 18 | 270 | 0.0 | 6.4 | 0.00 | 0.00 | 0.00 | 75 | 1006.8 |
| 20260509235202 | 20 | 338 | 3.2 | 3.2 | 0.00 | 0.00 | 0.00 | 71 | 1006.4 |
| 20260509234102 | 20 | 45 | 0.0 | 0.0 | 0.00 | 0.00 | 0.00 | 69 | 1006.4 |
| 20260509233003 | 21 | 203 | 0.0 | 3.2 | 0.00 | 0.00 | 0.00 | 66 | 1006.1 |
| 20260509231902 | 22 | 68 | 1.6 | 3.2 | 0.00 | 0.00 | 0.00 | 63 | 1005.8 |
| 20260509230803 | 22 | 45 | 0.0 | 3.2 | 0.00 | 0.00 | 0.00 | 63 | 1006.1 |
| 20260509225803 | 23 | 90 | 1.6 | 4.8 | 0.00 | 0.00 | 0.00 | 60 | 1005.8 |
| 20260509224702 | 23 | 45 | 1.6 | 3.2 | 0.00 | 0.00 | 0.00 | 59 | 1005.8 |
| 20260509222503 | 24 | 90 | 1.6 | 3.2 | 0.00 | 0.00 | 0.00 | 60 | 1005.4 |
| 20260509221402 | 24 | 113 | 3.2 | 6.4 | 0.00 | 0.00 | 0.00 | 59 | 1005.4 |
| 20260509215305 | 24 | 23 | 3.2 | 4.8 | 0.00 | 0.00 | 0.00 | 61 | 1005.8 |
| 20260509213202 | 25 | 270 | 1.6 | 3.2 | 0.00 | 0.00 | 0.00 | 59 | 1006.1 |
| 20260509212103 | 24 | 0 | 0.0 | 1.6 | 0.00 | 0.00 | 0.00 | 59 | 1005.8 |
| 20260509211003 | 25 | 113 | 0.0 | 1.6 | 0.00 | 0.00 | 0.00 | 58 | 1006.1 |
| 20260509205903 | 26 | 45 | 1.6 | 4.8 | 0.00 | 0.00 | 0.00 | 55 | 1005.8 |
| 20260509204803 | 26 | 0 | 6.4 | 6.4 | 0.00 | 0.00 | 0.00 | 54 | 1005.4 |
| 20260509203803 | 27 | 23 | 3.2 | 4.8 | 0.00 | 0.00 | 0.00 | 54 | 1005.8 |
| 20260509202703 | 27 | 203 | 3.2 | 6.4 | 0.00 | 0.00 | 0.00 | 53 | 1005.8 |
| 20260509201702 | 26 | 0 | 4.8 | 6.4 | 0.00 | 0.00 | 0.00 | 55 | 1005.8 |
| 20260509200603 | 27 | 135 | 1.6 | 3.2 | 0.00 | 0.00 | 0.00 | 54 | 1006.1 |
| 20260509195603 | 26 | 0 | 3.2 | 9.7 | 0.00 | 0.00 | 0.00 | 54 | 1006.4 |
| 20260509193502 | 25 | 90 | 1.6 | 6.4 | 0.00 | 0.00 | 0.00 | 56 | 1007.1 |
| 20260509192403 | 26 | 0 | 1.6 | 3.2 | 0.00 | 0.00 | 0.00 | 53 | 1006.8 |
| 20260509191303 | 28 | 293 | 3.2 | 4.8 | 0.00 | 0.00 | 0.00 | 49 | 1006.8 |
| 20260509190203 | 26 | 45 | 3.2 | 3.2 | 0.00 | 0.00 | 0.00 | 51 | 1006.8 |
| 20260509182903 | 21 | 225 | 3.2 | 8.0 | 0.00 | 0.00 | 0.00 | 60 | 1007.8 |
| 20260509181903 | 20 | 180 | 1.6 | 4.8 | 0.00 | 0.00 | 0.00 | 65 | 1007.8 |
| 20260509174602 | 19 | 113 | 0.0 | 6.4 | 0.00 | 0.00 | 0.00 | 70 | 1008.1 |
| 20260509173503 | 20 | 158 | 0.0 | 0.0 | 0.00 | 0.00 | 0.00 | 71 | 1008.1 |
| 20260509170203 | 22 | 23 | 0.0 | 0.0 | 0.00 | 0.00 | 0.00 | 60 | 1008.1 |